Wind_Speed
64 60 55 55 57 56 57 57 58 58 58 58 55 52 48 46 45 46 46 43 41 42 39 36 34 34 31 32 33 32 30 30 30 25 24 25 23 21 21 20 19 19 20 22
64 61 63 63 59 56 59 59 59 62 59 59 54 52 51 48 47 47 46 47 47 45 42 41 40 39 37 38 39 34 37 36 31 33 33 29 30 34 31 29 28 28 27 25
69 63 67 63 66 64 61 59 63 66 67 63 63 59 55 55 55 56 54 50 50 47 43 45 45 44 45 45 44 41 39 40 42 39 38 37 34 36 39 39 37 37 40 41
73 71 66 62 64 64 64 66 66 66 67 69 66 61 58 57 57 58 58 54 54 51 45 46 50 50 49 44 43 46 46 45 40 42 42 45 43 43 43 43 43 43 43 47
75 77 75 71 64 68 66 66 68 69 70 70 71 70 65 60 59 59 61 59 58 56 57 55 53 55 57 55 54 48 50 52 51 49 48 49 49 48 46 47 51 50 50 51
74 76 77 78 75 72 71 71 70 68 70 74 73 75 71 68 69 62 60 63 62 60 54 54 57 60 62 62 61 58 52 52 57 58 57 57 56 54 54 54 52 54 56 57
77 76 78 77 80 80 76 76 72 71 70 72 74 75 74 71 68 69 65 63 63 62 60 59 61 60 62 63 65 65 62 62 61 63 64 65 66 66 65 63 65 64 65 66
81 78 77 77 78 83 82 81 77 79 78 78 77 76 76 79 78 76 76 75 75 71 69 66 70 72 69 68 70 70 72 70 68 70 71 71 65 64 65 65 64 67 68 71
87 84 81 78 79 85 82 77 77 76 76 79 82 81 81 81 81 79 78 80 81 83 82 78 79 82 82 82 82 81 81 80 82 80 79 77 74 71 70 69 70 70 73 74
87 89 87 83 84 86 88 87 87 85 83 82 85 85 86 84 82 82 83 84 85 84 84 81 83 86 88 88 87 87 87 87 84 81 79 80 80 78 76 76 77 75 77 76
92 88 87 92 91 91 93 96 97 94 94 93 94 93 94 92 91 93 94 95 94 93 93 93 93 92 93 96 96 96 95 91 84 82 81 81 81 81 80 79 79 81 82 84
92 95 95 91 94 97 95 94 97 98 99 100 100 96 98 98 95 91 92 95 95 96 98 100 100 102 104 106 104 99 91 86 82 82 84 84 85 85 85 86 88 89 92 93
85 87 89 91 95 94 93 95 95 95 95 99 103 98 96 95 98 102 98 99 99 100 101 102 100 100 97 93 91 89 87 87 88 90 93 92 94 96 98 98 98 99 100 103
90 92 92 93 95 96 95 95 96 97 100 101 101 103 104 104 104 103 102 100 100 100 102 103 103 100 96 96 95 95 96 97 99 102 107 101 104 106 107 105 106 108 110 113
90 91 91 92 94 97 97 98 98 97 97 99 99 100 102 102 101 101 101 101 98 95 96 100 103 104 102 102 103 104 104 104 104 111 114 115 117 114 110 107 107 108 111 112
76 77 79 81 82 83 85 87 89 91 93 94 95 96 96 96 96 94 93 91 90 91 92 95 98 99 94 89 91 93 95 98 100 104 107 112 112 113 108 102 97 96 90 94
71 72 75 76 79 82 84 85 87 87 89 91 91 90 89 89 89 88 86 84 83 84 88 92 95 93 88 82 83 84 87 89 92 94 96 97 100 103 105 104 98 93 93 99
70 73 76 78 80 80 80 80 81 81 81 82 80 78 78 80 78 77 73 73 75 80 80 85 88 83 79 78 75 77 82 84 86 89 92 94 97 103 104 99 99 105 107 109
68 71 72 73 74 73 72 71 70 69 68 68 67 67 67 68 66 65 67 68 71 76 77 77 79 73 68 67 70 74 79 80 80 82 85 88 91 94 96 96 99 105 109 111
61 60 60 60 60 61 62 63 62 60 59 59 57 57 59 61 64 65 67 69 71 74 72 71 72 70 67 66 69 71 73 76 77 78 80 82 84 87 90 92 95 98 102 106
60 60 61 61 60 60 59 58 57 54 53 53 53 54 55 56 57 58 60 63 66 68 69 69 69 68 68 68 66 66 68 68 71 74 76 79 82 85 87 89 92 94 96 98
49 50 50 51 51 52 52 51 50 49 49 49 50 51 51 52 53 54 55 56 59 61 63 64 65 66 67 68 69 70 72 73 75 76 78 81 84 86 88 90 92 95 97 99
43 43 44 45 46 46 46 47 47 48 48 49 49 49 51 52 53 54 55 56 59 60 62 63 65 66 68 69 70 71 72 73 74 75 77 79 81 82 83 85 86 88 90 91
37 39 41 42 43 44 46 46 46 47 47 48 49 50 51 52 52 53 55 56 58 60 62 63 65 66 68 69 70 71 72 72 72 73 75 76 76 78 80 82 84 86 87 89
37 39 40 42 43 44 46 47 48 49 50 51 52 52 53 53 53 54 55 56 58 59 61 63 64 65 66 68 69 70 72 73 74 76 77 78 78 80 80 81 82 84 84 85
41 44 46 47 49 51 52 53 54 55 56 57 57 58 59 59 60 60 61 61 62 63 64 65 66 67 68 68 69 70 71 72 73 74 74 76 77 78 79 80 80 80 80 80
48 51 53 55 56 57 58 59 59 60 60 60 59 59 59 59 60 60 60 61 62 63 64 65 66 66 67 68 69 70 70 71 71 72 72 72 72 73 72 72 72 73 73 73
Wind_Direction
221 220 221 225 227 229 228 225 227 229 231 237 241 244 250 255 255 257 260 263 267 267 267 269 266 268 271 270 274 279 284 286 281 281 288 292 297 300 301 298 293 286 274 274
219 224 221 222 223 226 229 229 231 231 230 232 236 241 245 247 251 256 260 264 265 266 261 264 267 268 268 269 275 279 270 276 282 281 278 281 285 290 287 291 292 294 291 293
214 218 224 223 227 227 227 230 233 231 231 233 234 236 241 248 253 257 262 262 261 260 264 263 266 269 267 268 271 271 272 270 269 273 277 280 277 279 280 281 286 287 289 290
215 216 219 223 232 233 234 234 235 237 238 236 237 241 244 249 253 257 261 260 261 260 261 265 268 272 267 268 273 266 268 272 269 273 274 277 279 277 273 274 277 280 282 285
215 217 222 221 229 233 236 241 240 240 241 245 245 243 244 249 252 256 259 261 263 261 260 268 269 270 267 270 270 275 271 267 267 271 271 272 275 278 280 276 271 270 273 275
216 219 221 222 225 230 234 235 237 240 243 244 245 247 246 246 248 249 254 260 260 260 265 267 268 267 270 270 269 273 269 272 273 270 273 273 272 271 274 275 279 281 284 283
216 219 222 225 228 229 233 234 236 239 241 243 245 246 248 246 249 251 252 255 255 258 261 266 262 265 268 271 272 272 269 270 272 273 275 276 276 277 275 274 275 274 277 280
221 222 224 227 231 233 237 240 244 244 245 246 248 247 248 249 248 251 253 254 257 260 262 259 256 258 259 262 266 268 271 273 275 274 272 272 271 272 273 274 275 276 278 279
225 226 229 232 236 239 240 240 241 243 245 247 249 250 250 251 251 252 252 255 258 259 261 262 259 262 262 264 266 268 271 272 276 274 271 268 268 269 270 273 274 274 275 278
227 228 229 231 234 237 237 240 243 245 247 249 250 252 252 255 254 254 256 256 256 255 255 255 257 258 260 263 268 269 272 274 273 271 271 269 271 272 275 277 277 276 276 275
227 229 233 235 237 240 242 244 245 248 249 252 254 254 258 258 257 256 257 258 259 258 257 257 258 259 262 264 265 268 274 271 266 265 266 267 268 270 272 275 276 277 278 277
233 232 234 238 241 243 245 247 249 252 254 254 256 258 259 261 263 260 259 258 257 257 258 259 261 261 262 264 267 269 268 263 263 263 264 266 268 269 269 270 271 271 272 274
233 236 238 240 245 248 249 249 251 252 254 256 259 260 260 257 259 263 263 261 258 258 259 262 263 265 264 261 261 260 260 262 261 262 265 266 268 271 272 272 270 271 273 275
236 239 240 242 245 248 252 253 254 255 257 258 258 259 259 261 261 260 261 261 261 261 262 263 264 263 259 260 259 259 260 260 262 264 263 265 266 267 270 269 270 273 275 276
239 241 243 246 247 249 251 253 255 256 256 258 258 258 259 260 262 263 264 265 266 265 265 265 265 264 263 261 260 260 261 262 263 266 270 272 272 272 270 271 271 272 273 274
243 244 246 248 249 251 252 253 254 256 257 257 258 259 260 262 263 264 265 266 266 267 267 267 266 265 264 264 264 263 263 262 262 261 263 266 268 271 275 276 276 277 273 271
246 248 250 251 252 252 253 254 255 256 258 259 261 262 264 266 267 267 268 268 267 266 265 265 266 268 269 268 265 263 262 261 260 261 260 259 261 264 266 267 267 268 269 267
249 250 250 252 254 256 258 259 260 261 263 265 267 268 267 267 267 266 265 262 261 262 261 263 265 268 269 268 265 262 261 261 261 261 260 259 258 260 264 263 262 260 261 263
251 253 255 256 258 261 264 267 267 267 266 267 267 266 265 265 264 262 260 258 258 260 262 263 267 268 267 264 262 261 262 263 262 261 262 262 262 262 264 263 261 261 263 264
256 260 263 265 266 265 265 267 269 271 269 267 266 264 263 262 261 260 259 259 258 260 263 265 266 268 267 266 264 264 266 268 268 267 266 266 267 267 268 268 269 268 268 269
257 259 261 263 264 265 266 265 265 264 265 266 265 264 263 262 261 261 261 261 262 262 264 265 267 269 270 270 270 269 268 266 264 264 263 264 266 269 269 269 269 271 271 271
254 256 259 260 261 262 263 264 266 266 266 266 265 266 266 266 265 264 264 264 264 264 265 266 266 267 267 267 267 267 267 267 267 267 267 267 267 268 268 268 269 270 272 275
257 259 260 262 264 265 267 268 269 268 268 267 268 268 269 269 268 267 265 265 264 264 265 265 266 267 268 268 269 269 270 271 272 272 271 271 271 272 272 273 274 275 277 277
271 273 274 274 275 275 277 276 276 276 275 274 273 272 271 270 270 269 268 267 267 267 267 268 269 270 271 272 273 273 274 274 274 274 275 275 276 276 276 277 277 277 278 279
276 278 278 278 278 278 277 276 276 275 275 275 275 275 274 273 272 271 271 270 270 270 270 271 272 273 274 275 276 276 277 277 277 278 278 278 279 280 280 281 281 281 281 282
279 278 276 274 272 271 270 270 270 270 271 271 272 273 273 274 276 276 277 277 277 277 277 278 278 278 278 278 278 279 279 280 280 281 282 282 283 283 283 283 283 283 283 284
276 274 272 271 271 272 272 274 275 277 279 280 281 281 281 281 281 281 280 280 279 279 279 279 279 279 279 280 280 280 280 281 282 282 282 282 282 282 283 283 283 284 284 285
Height
10442 10454 10464 10471 10478 10485 10491 10497 10501 10506 10510 10513 10517 10519 10522 10528 10532 10536 10540 10543 10545 10547 10547 10548 10549 10550 10551 10552 10553 10553 10553 10552 10550 10550 10549 10549 10548 10548 10548 10547 10546 10545 10543 10541
10433 10442 10451 10460 10468 10474 10480 10486 10492 10496 10500 10500 10505 10510 10515 10519 10520 10523 10528 10532 10534 10536 10537 10538 10539 10539 10540 10541 10542 10543 10543 10543 10543 10543 10542 10542 10542 10541 10540 10539 10538 10537 10535 10534
10423 10434 10440 10450 10456 10461 10469 10474 10479 10482 10483 10492 10494 10499 10504 10507 10511 10511 10514 10520 10522 10523 10526 10527 10528 10528 10529 10530 10532 10532 10531 10531 10532 10532 10532 10532 10532 10531 10529 10528 10528 10526 10524 10523
10412 10423 10430 10440 10445 10451 10457 10461 10465 10471 10475 10480 10483 10489 10492 10496 10499 10500 10502 10505 10508 10512 10513 10514 10516 10517 10517 10517 10518 10518 10519 10520 10520 10519 10519 10519 10520 10519 10518 10517 10516 10514 10512 10510
10401 10409 10416 10429 10436 10442 10445 10449 10453 10458 10465 10469 10474 10478 10481 10487 10487 10488 10489 10492 10492 10497 10499 10500 10500 10502 10503 10504 10505 10507 10505 10506 10506 10507 10506 10507 10506 10505 10504 10503 10502 10500 10498 10496
10388 10396 10405 10416 10421 10424 10427 10431 10439 10445 10451 10457 10460 10464 10470 10472 10471 10474 10477 10478 10479 10480 10481 10483 10484 10485 10486 10487 10490 10491 10491 10491 10490 10490 10490 10490 10490 10491 10490 10487 10485 10484 10481 10480
10373 10383 10393 10401 10407 10408 10410 10417 10428 10433 10440 10442 10446 10450 10454 10459 10459 10462 10465 10467 10465 10465 10468 10469 10469 10468 10468 10470 10471 10473 10473 10473 10474 10474 10473 10473 10473 10473 10471 10471 10469 10466 10464 10460
10363 10372 10380 10388 10390 10396 10402 10408 10414 10419 10425 10428 10430 10434 10437 10439 10444 10448 10448 10451 10449 10451 10452 10452 10452 10453 10455 10453 10454 10454 10453 10453 10454 10456 10455 10454 10454 10454 10453 10451 10450 10448 10444 10440
10350 10359 10364 10374 10380 10383 10389 10392 10396 10401 10407 10408 10411 10415 10419 10421 10427 10427 10434 10433 10432 10434 10435 10436 10435 10434 10436 10437 10437 10437 10436 10435 10433 10434 10436 10434 10433 10432 10433 10432 10429 10427 10425 10422
10339 10345 10351 10355 10362 10366 10370 10374 10379 10383 10387 10390 10392 10396 10399 10403 10405 10409 10412 10413 10414 10415 10416 10417 10417 10416 10415 10415 10414 10415 10415 10415 10414 10412 10414 10413 10413 10411 10411 10410 10409 10408 10405 10403
10324 10332 10336 10340 10344 10349 10355 10357 10361 10364 10367 10370 10372 10375 10378 10381 10383 10385 10389 10390 10391 10392 10395 10396 10397 10396 10395 10394 10394 10395 10393 10392 10392 10392 10392 10392 10392 10392 10392 10390 10388 10385 10383 10381
10310 10317 10318 10326 10329 10331 10335 10338 10342 10345 10347 10350 10352 10354 10354 10356 10357 10359 10362 10365 10367 10367 10369 10370 10372 10371 10372 10371 10371 10371 10371 10369 10369 10370 10370 10369 10370 10370 10369 10368 10366 10364 10360 10357
10293 10298 10305 10312 10308 10313 10317 10320 10322 10324 10325 10327 10328 10328 10328 10330 10331 10332 10334 10337 10341 10343 10342 10343 10343 10344 10345 10344 10345 10346 10349 10348 10348 10344 10342 10345 10345 10345 10344 10342 10340 10337 10334 10329
10277 10282 10289 10294 10292 10296 10299 10299 10300 10302 10302 10302 10302 10302 10302 10302 10302 10304 10305 10309 10312 10315 10315 10315 10314 10315 10317 10318 10321 10321 10322 10323 10321 10320 10314 10319 10316 10316 10316 10315 10311 10308 10305 10298
10259 10266 10272 10275 10277 10277 10277 10278 10278 10278 10277 10277 10276 10275 10273 10274 10275 10276 10278 10280 10284 10287 10287 10283 10280 10280 10286 10290 10291 10294 10295 10295 10298 10291 10286 10285 10281 10284 10283 10284 10281 10280 10275 10269
10245 10249 10251 10253 10255 10256 10255 10255 10254 10252 10250 10248 10248 10247 10247 10248 10250 10253 10255 10257 10258 10257 10256 10252 10247 10246 10252 10260 10262 10262 10263 10263 10264 10264 10264 10259 10257 10252 10249 10250 10249 10247 10245 10239
10228 10232 10230 10233 10232 10230 10229 10228 10227 10227 10226 10224 10225 10226 10227 10228 10228 10229 10230 10232 10233 10232 10228 10222 10218 10220 10225 10232 10232 10231 10230 10231 10230 10231 10232 10233 10229 10227 10226 10225 10224 10221 10217 10213
10208 10209 10208 10208 10208 10208 10208 10209 10209 10209 10207 10206 10205 10207 10206 10204 10204 10203 10205 10204 10203 10200 10202 10197 10195 10199 10200 10200 10202 10201 10200 10201 10202 10202 10202 10202 10203 10200 10198 10198 10196 10192 10187 10183
10190 10190 10190 10190 10190 10190 10190 10189 10188 10186 10185 10183 10183 10182 10181 10180 10180 10180 10179 10179 10179 10176 10175 10174 10172 10176 10177 10177 10176 10174 10173 10173 10174 10174 10173 10172 10171 10170 10168 10167 10166 10162 10158 10153
10173 10174 10174 10174 10173 10172 10170 10167 10166 10165 10163 10162 10161 10160 10158 10156 10155 10156 10155 10155 10156 10154 10155 10155 10154 10154 10154 10154 10153 10152 10152 10151 10150 10148 10147 10146 10145 10142 10139 10136 10134 10130 10127 10120
10157 10156 10155 10155 10154 10152 10150 10149 10147 10146 10144 10143 10142 10140 10139 10138 10137 10136 10135 10135 10135 10134 10134 10135 10134 10134 10133 10132 10131 10129 10128 10126 10124 10122 10120 10118 10115 10112 10109 10107 10102 10098 10093 10087
10145 10143 10142 10141 10139 10137 10135 10134 10132 10130 10128 10127 10125 10123 10122 10120 10119 10118 10117 10116 10116 10115 10114 10113 10113 10112 10110 10109 10107 10106 10104 10102 10099 10097 10094 10091 10088 10085 10081 10077 10073 10069 10065 10059
10131 10130 10129 10127 10125 10123 10121 10119 10118 10115 10113 10111 10110 10108 10106 10105 10103 10101 10100 10099 10097 10095 10093 10092 10091 10089 10087 10085 10083 10081 10078 10076 10073 10070 10067 10064 10061 10057 10053 10049 10046 10042 10037 10032
10121 10118 10116 10114 10111 10109 10107 10104 10102 10099 10097 10095 10093 10091 10089 10087 10085 10083 10081 10080 10078 10076 10074 10073 10070 10068 10065 10063 10060 10057 10054 10051 10048 10045 10042 10039 10035 10032 10028 10024 10019 10014 10009 10004
10110 10107 10104 10101 10097 10094 10091 10088 10084 10081 10079 10076 10074 10072 10070 10068 10066 10064 10062 10059 10057 10055 10053 10050 10048 10045 10042 10040 10037 10033 10030 10027 10025 10021 10018 10014 10010 10006 10002 9998 9992 9987 9981 9975
10096 10092 10087 10083 10079 10075 10072 10069 10066 10063 10060 10058 10056 10053 10051 10049 10047 10045 10043 10040 10038 10035 10033 10030 10028 10024 10021 10018 10014 10011 10007 10003 10000 9996 9992 9987 9983 9978 9974 9969 9964 9959 9954 9948
10078 10073 10068 10064 10061 10057 10054 10051 10048 10046 10043 10040 10038 10035 10033 10031 10028 10026 10023 10020 10017 10014 10011 10008 10004 10001 9997 9994 9990 9987 9983 9979 9976 9971 9967 9963 9958 9954 9949 9944 9939 9934 9929 9923